This is the latest recevied weather packets stored in our database for station/object JF2ZGN-13. If no packets are shown the sender has not sent any weather packets the latest 1 day(s).
| Time | Temp. | Humidity | Pressure | Rain* | Wind** | Luminosity | Snow |
|---|---|---|---|---|---|---|---|
| 1778066290 | 12.22° C | 46% | 910.7 hPa | 0.76 mm | - | - | - |
| 1778065089 | 12.22° C | 46% | 910.9 hPa | 0.76 mm | - | - | - |
| 1778064488 | 12.22° C | 46% | 910.9 hPa | 0.76 mm | - | - | - |
| 1778063287 | 12.22° C | 46% | 910.6 hPa | 0.76 mm | - | - | - |
| 1778062086 | 12.22° C | 45% | 910.8 hPa | 0.76 mm | - | - | - |
| 1778060285 | 12.22° C | 44% | 910.7 hPa | 0.76 mm | - | - | - |
| 1778059684 | 12.22° C | 46% | 911 hPa | 0.76 mm | - | - | - |
| 1778057883 | 12.22° C | 46% | 911 hPa | 0.76 mm | - | - | - |
| 1778057283 | 12.22° C | 46% | 911.1 hPa | 0.76 mm | - | - | - |
| 1778056081 | 12.22° C | 42% | 911.2 hPa | 0.51 mm | - | - | - |
| 1778055481 | 12.22° C | 40% | 911.3 hPa | 0.51 mm | - | - | - |
| 1778053079 | 12.22° C | 38% | 911.4 hPa | 0.51 mm | - | - | - |
| 1778052478 | 12.22° C | 35% | 911.3 hPa | 0.25 mm | - | - | - |
| 1778051878 | 12.22° C | 37% | 911.5 hPa | 0.25 mm | - | - | - |
| 1778051278 | 12.22° C | 41% | 911.4 hPa | 0.25 mm | - | - | - |
| 1778050077 | 11.67° C | 69% | 911.4 hPa | 0 mm | - | - | - |
| 1778049477 | 11.67° C | 75% | 911.3 hPa | 0 mm | - | - | - |
| 1778048876 | 11.67° C | 60% | 911.6 hPa | 0 mm | - | - | - |
| 1778048275 | 12.22° C | 67% | 911.6 hPa | 0 mm | - | - | - |
| 1778046474 | 12.22° C | 79% | 911.4 hPa | 0 mm | - | - | - |
| 1778045873 | 11.67° C | 83% | 911.4 hPa | 0 mm | - | - | - |
| 1778045273 | 12.22° C | 85% | 911.4 hPa | 0 mm | - | - | - |
| 1778044072 | 12.22° C | 85% | 911.8 hPa | 0 mm | - | - | - |
| 1778043472 | 12.22° C | 85% | 911.7 hPa | 0 mm | - | - | - |
| 1778042871 | 12.22° C | 84% | 911.8 hPa | 0 mm | - | - | - |
* Rain since midnight (hover to see other rain measurements)
** Current wind speed in m/s (hover to see current wind gust speed)